FW0663 Weather Reports


Display with metric or nautical units.
time (UTC)temp
F
wind
direction
speed
MPH
gust
MPH
rain 1hr
in
rain 24hr
in
rain mn
in
humidity
%
barometer
mb
20260905133015 38 118 0.0 3.0 0.00 0.09 0.00 94 1020.4
20260905131514 38 97 0.0 2.0 0.00 0.09 0.00 94 1020.2
20260905130013 37 246 0.0 0.0 0.00 0.09 0.00 94 1020.4
20260905124518 37 107 0.0 0.0 0.00 0.09 0.00 94 1020.3
20260905123040 37 234 0.0 0.0 0.00 0.09 0.00 93 1020.4
20260905121515 37 232 0.0 0.0 0.00 0.09 0.00 94 1020.3
20260905120009 37 103 0.0 0.0 0.00 0.09 0.00 93 1020.4
20260905114513 38 117 0.0 1.0 0.00 0.09 0.00 94 1020.5
20260905113008 37 121 0.0 0.0 0.00 0.09 0.00 93 1020.5
20260905111508 37 139 0.0 0.0 0.00 0.09 0.00 93 1020.5
20260905110006 37 161 0.0 0.0 0.00 0.09 0.00 92 1020.5
20260905104503 38 129 0.0 0.0 0.00 0.09 0.00 92 1020.4
20260905103105 39 86 0.0 0.0 0.00 0.09 0.00 93 1020.2
20260905101600 39 153 0.0 0.0 0.00 0.09 0.00 93 1020.2
20260905100107 39 219 0.0 0.0 0.00 0.09 0.00 94 1020.2
20260905094557 40 155 0.0 2.0 0.00 0.09 0.00 93 1020.0
20260905093058 40 140 0.0 2.0 0.00 0.09 0.00 93 1020.1
20260905091557 40 92 1.0 3.0 0.00 0.09 0.00 94 1020.0
20260905090054 40 144 0.0 2.0 0.00 0.09 0.00 94 1020.1
20260905084605 39 128 0.0 2.0 0.00 0.09 0.00 93 1020.0
20260905083052 39 107 0.0 0.0 0.00 0.09 0.00 93 1019.9
20260905081550 39 113 0.0 0.0 0.00 0.09 0.00 93 1019.8
20260905080118 40 105 0.0 0.0 0.00 0.09 0.00 93 1019.8
20260905074549 40 218 0.0 0.0 0.00 0.09 0.00 92 1019.8
20260905073044 40 98 0.0 0.0 0.00 0.09 0.00 93 1019.5
20260905071542 40 105 0.0 0.0 0.00 0.09 0.00 92 1019.3
20260905070049 41 105 0.0 0.0 0.00 0.09 0.09 92 1019.2
20260905064546 41 86 0.0 0.0 0.00 0.09 0.09 92 1019.0
20260905063041 42 250 0.0 0.0 0.00 0.09 0.09 92 1018.9
20260905061539 42 126 0.0 0.0 0.00 0.09 0.09 92 1018.7
20260905060047 43 126 0.0 0.0 0.00 0.09 0.09 93 1018.5
20260905054538 42 98 0.0 0.0 0.00 0.09 0.09 91 1018.6
20260905053035 43 104 0.0 0.0 0.00 0.09 0.09 92 1018.4
20260905051549 43 110 0.0 0.0 0.00 0.09 0.09 90 1018.5
20260905050037 44 94 0.0 2.0 0.00 0.09 0.09 91 1018.5
20260905044541 45 80 0.0 2.0 0.00 0.09 0.09 90 1018.6
20260905043037 45 95 0.0 0.0 0.00 0.09 0.09 89 1018.7
20260905041534 46 344 0.0 0.0 0.00 0.09 0.09 87 1018.7
20260905040038 47 344 0.0 2.0 0.00 0.09 0.09 88 1018.4
20260905034528 47 223 0.0 2.0 0.00 0.09 0.09 88 1018.1
20260905033026 48 238 0.0 1.0 0.00 0.09 0.09 86 1017.8
20260905031534 48 105 0.0 4.0 0.00 0.09 0.09 87 1017.3
20260905030023 47 91 0.0 2.0 0.00 0.09 0.09 88 1017.2
20260905024523 48 113 0.0 5.0 0.00 0.09 0.09 87 1017.1
20260905023023 48 78 0.0 3.0 0.00 0.09 0.09 85 1017.3
20260905021533 49 117 1.0 3.0 0.00 0.09 0.09 84 1017.2
20260905020027 50 73 0.0 5.0 0.01 0.09 0.09 83 1017.1
20260905014522 51 114 2.0 7.0 0.05 0.09 0.09 81 1017.2
20260905013021 53 101 1.0 3.0 0.06 0.09 0.09 81 1017.0
20260905011520 52 80 1.0 5.0 0.06 0.09 0.09 84 1016.6
20260905010022 51 126 0.0 2.0 0.05 0.08 0.08 83 1017.1
20260905004517 52 153 2.0 6.0 0.01 0.04 0.04 76 1017.3
20260905003035 54 163 2.0 5.0 0.01 0.03 0.03 72 1017.1
20260905001514 54 126 2.0 7.0 0.01 0.03 0.03 70 1016.4
20260905000014 54 138 4.0 10.0 0.01 0.03 0.03 71 1016.3
20260904234513 53 103 3.0 13.0 0.01 0.03 0.03 76 1016.4
20260904233032 56 124 3.0 7.0 0.00 0.02 0.02 70 1016.2
20260904231513 57 235 1.0 3.0 0.00 0.02 0.02 65 1016.0
20260904230031 58 274 0.0 4.0 0.00 0.02 0.02 61 1015.6
20260904224513 58 252 0.0 2.0 0.00 0.02 0.02 58 1015.3
20260904223011 58 70 0.0 3.0 0.00 0.02 0.02 58 1015.3
20260904221510 58 101 2.0 7.0 0.00 0.02 0.02 60 1015.2
20260904220013 58 101 2.0 8.0 0.00 0.02 0.02 61 1015.4
20260904214507 57 279 1.0 6.0 0.00 0.02 0.02 65 1015.5
20260904213003 56 256 1.0 7.0 0.01 0.02 0.02 70 1015.8
20260904211504 55 60 0.0 4.0 0.01 0.02 0.02 73 1015.9
20260904210001 53 96 1.0 3.0 0.02 0.02 0.02 75 1016.0
20260904204502 52 90 0.0 3.0 0.02 0.02 0.02 78 1016.1
20260904203100 51 140 0.0 3.0 0.01 0.01 0.01 81 1016.1
20260904201620 51 142 2.0 4.0 0.01 0.01 0.01 76 1016.4
20260904200104 52 105 1.0 10.0 0.00 0.00 0.00 72 1016.4
20260904194559 53 111 1.0 11.0 0.00 0.00 0.00 66 1016.4
20260904193101 55 161 3.0 7.0 0.00 0.00 0.00 60 1016.3
20260904191555 55 233 1.0 3.0 0.00 0.00 0.00 60 1016.2
20260904190054 55 11 0.0 3.0 0.00 0.00 0.00 57 1016.0
20260904184553 55 271 0.0 3.0 0.00 0.00 0.00 57 1016.0
20260904183059 55 323 0.0 3.0 0.00 0.00 0.00 56 1015.8
20260904181551 55 40 1.0 4.0 0.00 0.00 0.00 52 1015.8
20260904180059 55 326 1.0 5.0 0.00 0.00 0.00 53 1015.7
20260904174550 55 260 1.0 5.0 0.00 0.00 0.00 56 1015.6
20260904173111 56 108 1.0 5.0 0.00 0.00 0.00 58 1015.4
20260904171554 55 103 2.0 5.0 0.00 0.00 0.00 58 1015.5
20260904170051 54 147 2.0 5.0 0.00 0.00 0.00 60 1015.6
20260904164542 54 256 1.0 3.0 0.00 0.00 0.00 61 1015.4
20260904163044 54 334 0.0 3.0 0.00 0.00 0.00 65 1015.3
20260904161536 53 72 0.0 2.0 0.00 0.00 0.00 65 1015.2
20260904160036 51 319 1.0 3.0 0.00 0.00 0.00 70 1015.3
20260904154531 51 94 1.0 4.0 0.00 0.00 0.00 72 1015.3
20260904153036 50 80 1.0 3.0 0.00 0.00 0.00 75 1015.3
20260904151526 48 70 0.0 3.0 0.00 0.00 0.00 78 1015.2
20260904150036 47 131 1.0 5.0 0.00 0.00 0.00 81 1015.1
20260904144519 46 57 0.0 3.0 0.00 0.00 0.00 84 1015.0
20260904143029 44 70 1.0 3.0 0.00 0.00 0.00 85 1014.7
20260904141516 43 74 0.0 0.0 0.00 0.00 0.00 87 1014.6
20260904140014 41 74 0.0 0.0 0.00 0.00 0.00 90 1014.3
20260904134513 41 113 0.0 3.0 0.00 0.00 0.00 89 1014.2